Regional Weather Roundup
Issued by NWS

Home | Current Version | Previous Version | Text Only | Print | Product List | Glossary Off
Versions: 1 2 3 4 5 6 7 8 9 10 11 12 13 14 15 16 17 18 19 20 21 22 23 24 25 26 27 28 29 30 31 32 33 34 35 36 37 38 39 40 41 42 43 44 45 46 47 48 49 50

000
ASUS44 KMEG 230010
RWRTN
TENNESSEE HOURLY STATE WEATHER ROUNDUP
NATIONAL WEATHER SERVICE MEMPHIS TN
700 PM CDT FRI AUG 22 2014

TNZ002-004-019-021-049-052-054-088>092-230100-
WEST TENNESSEE

CITY           SKY/WX    TMP DP  RH WIND       PRES   REMARKS
MEMPHIS INTL   PTCLDY    90  74  59 SW9       29.98F HX  99
NWS MEMPHIS      N/A     91 N/A N/A MISG        N/A
JACKSON        PTCLDY    87  76  69 CALM      29.98F HX  97
DYERSBURG      PTCLDY    90  72  55 CALM      29.97F HX  96
UNION CITY     CLEAR     88  77  70 S3        29.96F HX 100
PARIS          CLEAR     84  75  74 SW3       29.99S HX  92
HUNTINGDON     PTCLDY    85  76  74 CALM      29.98F HX  94
LEXINGTON      CLEAR     88  73  62 SW6       29.99S HX  96
SAVANNAH       CLEAR     90  75  62 CALM      30.00F HX 100
$$

TNZ008-025-027-028-033-062-065-066-230100-
NORTH MIDDLE TENNESSEE

CITY           SKY/WX    TMP DP  RH WIND       PRES   REMARKS
NASHVILLE      PTCLDY    88  72  58 SW3       29.98F HX  94
DICKSON        PTCLDY    86  73  66 W3        30.00F HX  93
PORTLAND       PTCLDY    86  72  62 VRB5      29.98S HX  92
CLARKSVILLE    MOCLDY    87  74  64 SW8       29.97S HX  95
LEBANON        PTCLDY    87  74  65 SW3       29.97F HX  95
SMYRNA         CLEAR     88  73  60 W9        29.99F HX  95
MURFREESBORO   PTCLDY    90  70  51 SW9       29.98F HX  95
COOKEVILLE     CLEAR     84  79  84 CALM      30.01F HX  96
LIVINGSTON     CLEAR     82  72  72 SW3       30.02F
GALLATIN       PTCLDY    89  73  59 W5        29.99F HX  96
CROSSVILLE     CLEAR     80  71  74 SW3       30.07F
$$

TNZ061-075-076-078-094-096-097-230100-
SOUTH MIDDLE TENNESSEE

CITY           SKY/WX    TMP DP  RH WIND       PRES   REMARKS
LEWISBURG      PTCLDY    89  74  61 CALM      30.00F HX  97
FAYETTEVILLE   CLEAR     88  70  55 W3        30.03S HX  92
TULLAHOMA      CLEAR     86  72  62 W3        30.03F HX  92
WINCHESTER     CLEAR     90  73  58 CALM      30.02F HX  98
MCMINNVILLE    PTCLDY    84  79  84 CALM      30.02F HX  96
COLUMBIA       CLEAR     88  73  62 SW5       29.99F HX  96
SHELBYVILLE    CLEAR     90  75  62 W5        30.01F HX 100
$$

TNZ017-018-042-046-047-230100-
NORTHEAST TENNESSEE

CITY           SKY/WX    TMP DP  RH WIND       PRES   REMARKS
TRI CITIES     CLOUDY    74  69  85 CALM      30.04S
ELIZABETHTON   DRIZZLE   75  68  78 NW14G26   30.05R
$$

TNZ012-013-036-069-073-074-230100-
CENTRAL EAST TENNESSEE

CITY           SKY/WX    TMP DP  RH WIND       PRES   REMARKS
KNOXVILLE      MOCLDY    83  71  67 SW7       30.00S
OAK RIDGE      CLEAR     87  72  60 SW6       30.01F HX  93
GATLINBURG     CLEAR     86  70  58 W6        30.00S HX  90
MORRISTOWN     CLEAR     86  72  62 W8        30.03R HX  92
$$

TNZ083-085-099-230100-
SOUTHEAST TENNESSEE

CITY           SKY/WX    TMP DP  RH WIND       PRES   REMARKS
CHATTANOOGA    PTCLDY    90  69  50 W6        30.01S HX  94
$$

SKY/WX REPORTED AS FAIR MEANS FEW OR NO CLOUDS BELOW
12 THOUSAND FEET.




USA.gov is the U.S. government's official web portal to all federal, state and local government web resources and services.